sat.trackr.live / text

‹ back to catalog

SHERPA-FX2 & TAGSAT-2

NORAD 48958 · 2021-059CH

PAYLOAD ACTIVE UNKNOWN

§ Identity

Operator
Country
US
Launch date
2021-06-30
Launch site
AFETR
Launch vehicle
Mass (kg)
RCS (m²)

External: N2YO · Heavens-Above · Gunter

§ Orbital elements

Epoch: 2026-05-25T02:10:00.213600Z

Period
92.59 min
Inclination
97.6878°
Eccentricity
0.0007588
Mean motion
15.55194142 rev/d
Perigee alt
396.4 km
Apogee alt
406.7 km
Semi-major
6,779.7 km
B*
2.7831e-4
RAAN
337.3593°
Arg perigee
68.4869°
Mean anomaly
291.7193°
Rev number
27,383

§ Raw data

SHERPA-FX2 & TAGSAT-21 48958U 21059CH  26145.09028025  .00018722  00000+0  27831-3 0  99982 48958  97.6878 337.3593 0007588  68.4869 291.7193 15.55194142273835

JSON: /api/v1/satellites/48958 · /tle

For live sub-satellite position, see the globe view (requires WebGL).

§ Visibility from observer

Set your observer location to see the next 7 days of passes ≥ 10°. The values pass through the URL so the page stays shareable.

No JS? Fill the form by hand. The geolocation button needs JavaScript.